{"data":{"norad_id":58880,"epoch":"2026-05-25T04:05:57.621120Z","epoch_age_seconds":56200,"freshness":"FRESH","line1":"1 58880U 24020E   26145.17080580  .00004907  00000+0  17766-3 0  9993","line2":"2 58880  53.1609 311.9630 0000944  94.3512 265.7597 15.30202651129995","mean_motion":15.30202651,"eccentricity":9.44e-5,"inclination_deg":53.1609,"raan_deg":311.963,"arg_perigee_deg":94.3512,"mean_anomaly_deg":265.7597,"bstar":0.00017766,"rev_number":12999,"period_min":94.105182673612,"perigee_km":474.56019833446,"apogee_km":475.85410971074,"semimajor_km":6853.3441540226,"source":"CELESTRAK","updated_at":"2026-05-25T13:38:18.783729Z"}}